FW6401 Weather Reports


time (UTC)temp
F
wind
direction
speed
knots
gust
knots
rain 1hr
in
rain 24hr
in
rain mn
in
humidity
%
barometer
mb
20260504194548 57 300 3.5 11.3 0.00 0.10 0.10 68 1006.4
20260504193045 56 276 5.2 9.6 0.00 0.10 0.10 69 1006.7
20260504191543 55 314 7.8 12.2 0.00 0.10 0.10 74 1006.9
20260504190039 54 302 4.3 9.6 0.00 0.10 0.10 75 1007.1
20260504184538 52 323 3.5 8.7 0.00 0.10 0.10 83 1007.3
20260504183038 53 5 0.9 4.3 0.00 0.10 0.10 81 1007.3
20260504181538 52 340 2.6 5.2 0.00 0.10 0.10 81 1007.3
20260504180037 49 350 2.6 4.3 0.00 0.10 0.10 88 1007.5
20260504174538 47 355 0.0 1.7 0.00 0.10 0.10 91 1007.7
20260504173039 46 59 0.0 0.9 0.00 0.10 0.10 94 1007.8
20260504171537 46 59 0.0 2.6 0.01 0.10 0.10 94 1007.8
20260504081535 32 184 0.9 2.6 0.00 0.08 0.00 90 1008.0
20260504050013 28 139 0.9 4.3 0.00 0.13 0.00 91 1008.3
20260504044514 28 119 1.7 3.5 0.00 0.18 0.00 91 1008.2
20260504043012 29 134 0.0 2.6 0.00 0.18 0.00 91 1008.3
20260504041520 29 134 0.0 2.6 0.00 0.18 0.00 90 1008.3
20260504040003 29 140 1.7 3.5 0.00 0.21 0.18 90 1008.0
20260504034625 29 123 0.9 2.6 0.00 0.21 0.18 90 1007.9
20260504033059 29 113 0.0 2.6 0.00 0.21 0.18 89 1007.9
20260504031556 30 104 0.0 1.7 0.00 0.21 0.18 89 1008.0
20260504030054 30 104 0.9 3.5 0.00 0.21 0.18 88 1008.0
20260504024554 31 100 1.7 3.5 0.00 0.22 0.18 87 1008.0
20260504023050 32 100 0.0 2.6 0.00 0.22 0.18 86 1008.0
20260504021552 32 100 0.9 3.5 0.00 0.22 0.18 85 1008.1
20260504020045 34 342 0.9 7.8 0.00 0.22 0.18 82 1008.1
20260504014544 33 220 0.9 3.5 0.00 0.23 0.18 84 1007.9
20260504013055 34 165 0.0 1.7 0.00 0.23 0.18 81 1007.9
20260504011542 36 202 1.7 3.5 0.00 0.23 0.18 77 1008.0
20260504010043 37 267 0.9 2.6 0.00 0.23 0.18 73 1008.0
20260504004540 39 274 1.7 4.3 0.00 0.23 0.18 68 1007.8
20260504003039 40 265 2.6 7.8 0.00 0.23 0.18 66 1007.8
20260504001543 40 232 2.6 9.6 0.00 0.23 0.18 65 1007.5
20260504000040 41 281 2.6 11.3 0.00 0.23 0.18 64 1007.3
20260503234538 41 257 4.3 8.7 0.00 0.23 0.18 64 1007.4
20260503233038 41 289 4.3 7.8 0.00 0.23 0.18 67 1007.3
20260503231538 41 321 3.5 7.8 0.00 0.23 0.18 67 1007.6
20260503230041 41 311 2.6 8.7 0.00 0.23 0.18 67 1007.3
20260503224536 41 324 6.1 9.6 0.00 0.23 0.18 67 1007.5
20260503223035 41 338 1.7 7.0 0.00 0.23 0.18 69 1007.3
20260503221535 41 321 3.5 8.7 0.00 0.23 0.18 67 1007.2
20260503220037 41 341 4.3 9.6 0.00 0.23 0.18 66 1007.0
20260503214540 42 342 5.2 11.3 0.00 0.23 0.18 65 1007.1
20260503213037 42 294 7.8 15.6 0.00 0.23 0.18 63 1007.0
20260503211533 42 329 4.3 13.9 0.00 0.23 0.18 61 1007.1
20260503210033 42 329 7.8 14.8 0.00 0.23 0.18 61 1006.9
20260503204532 41 266 7.0 13.9 0.00 0.26 0.18 65 1007.0
20260503203036 42 306 8.7 18.2 0.00 0.26 0.18 66 1006.8
20260503201530 42 322 3.5 13.0 0.00 0.26 0.18 63 1006.8
20260503200030 43 239 7.0 13.0 0.00 0.26 0.18 62 1006.8